Index of /20260507/WXO-DD/model_rdps/10km/06/027
Name Last modified Size Description
Parent Directory -
20260507T06Z_MSC_RDPS_AbsoluteVorticity_IsbL-0250_RLatLon0.09_PT027H.grib2 2026-05-07 08:48 590K
20260507T06Z_MSC_RDPS_AbsoluteVorticity_IsbL-0500_RLatLon0.09_PT027H.grib2 2026-05-07 08:48 551K
20260507T06Z_MSC_RDPS_AbsoluteVorticity_IsbL-0700_RLatLon0.09_PT027H.grib2 2026-05-07 08:48 616K
20260507T06Z_MSC_RDPS_AbsoluteVorticity_IsbL-0850_RLatLon0.09_PT027H.grib2 2026-05-07 08:48 788K
20260507T06Z_MSC_RDPS_AirTemp_AGL-120m_RLatLon0.09_PT027H.grib2 2026-05-07 08:48 380K
20260507T06Z_MSC_RDPS_AirTemp_AGL-2m_RLatLon0.09_PT027H.grib2 2026-05-07 08:48 635K
20260507T06Z_MSC_RDPS_AirTemp_AGL-40m_RLatLon0.09_PT027H.grib2 2026-05-07 08:48 399K
20260507T06Z_MSC_RDPS_AirTemp_AGL-80m_RLatLon0.09_PT027H.grib2 2026-05-07 08:48 389K
20260507T06Z_MSC_RDPS_AirTemp_IsbL-0001_RLatLon0.09_PT027H.grib2 2026-05-07 08:48 301K
20260507T06Z_MSC_RDPS_AirTemp_IsbL-0005_RLatLon0.09_PT027H.grib2 2026-05-07 08:48 377K
20260507T06Z_MSC_RDPS_AirTemp_IsbL-0010_RLatLon0.09_PT027H.grib2 2026-05-07 08:48 393K
20260507T06Z_MSC_RDPS_AirTemp_IsbL-0020_RLatLon0.09_PT027H.grib2 2026-05-07 08:48 319K
20260507T06Z_MSC_RDPS_AirTemp_IsbL-0030_RLatLon0.09_PT027H.grib2 2026-05-07 08:48 340K
20260507T06Z_MSC_RDPS_AirTemp_IsbL-0050_RLatLon0.09_PT027H.grib2 2026-05-07 08:48 313K
20260507T06Z_MSC_RDPS_AirTemp_IsbL-0100_RLatLon0.09_PT027H.grib2 2026-05-07 08:48 423K
20260507T06Z_MSC_RDPS_AirTemp_IsbL-0150_RLatLon0.09_PT027H.grib2 2026-05-07 08:48 405K
20260507T06Z_MSC_RDPS_AirTemp_IsbL-0175_RLatLon0.09_PT027H.grib2 2026-05-07 08:48 398K
20260507T06Z_MSC_RDPS_AirTemp_IsbL-0200_RLatLon0.09_PT027H.grib2 2026-05-07 08:48 404K
20260507T06Z_MSC_RDPS_AirTemp_IsbL-0225_RLatLon0.09_PT027H.grib2 2026-05-07 08:48 406K
20260507T06Z_MSC_RDPS_AirTemp_IsbL-0250_RLatLon0.09_PT027H.grib2 2026-05-07 08:48 413K
20260507T06Z_MSC_RDPS_AirTemp_IsbL-0275_RLatLon0.09_PT027H.grib2 2026-05-07 08:48 394K
20260507T06Z_MSC_RDPS_AirTemp_IsbL-0300_RLatLon0.09_PT027H.grib2 2026-05-07 08:48 427K
20260507T06Z_MSC_RDPS_AirTemp_IsbL-0350_RLatLon0.09_PT027H.grib2 2026-05-07 08:48 415K
20260507T06Z_MSC_RDPS_AirTemp_IsbL-0400_RLatLon0.09_PT027H.grib2 2026-05-07 08:48 417K
20260507T06Z_MSC_RDPS_AirTemp_IsbL-0450_RLatLon0.09_PT027H.grib2 2026-05-07 08:48 426K
20260507T06Z_MSC_RDPS_AirTemp_IsbL-0500_RLatLon0.09_PT027H.grib2 2026-05-07 08:48 403K
20260507T06Z_MSC_RDPS_AirTemp_IsbL-0550_RLatLon0.09_PT027H.grib2 2026-05-07 08:48 419K
20260507T06Z_MSC_RDPS_AirTemp_IsbL-0600_RLatLon0.09_PT027H.grib2 2026-05-07 08:48 435K
20260507T06Z_MSC_RDPS_AirTemp_IsbL-0650_RLatLon0.09_PT027H.grib2 2026-05-07 08:48 450K
20260507T06Z_MSC_RDPS_AirTemp_IsbL-0700_RLatLon0.09_PT027H.grib2 2026-05-07 08:48 477K
20260507T06Z_MSC_RDPS_AirTemp_IsbL-0750_RLatLon0.09_PT027H.grib2 2026-05-07 08:48 519K
20260507T06Z_MSC_RDPS_AirTemp_IsbL-0800_RLatLon0.09_PT027H.grib2 2026-05-07 08:48 573K
20260507T06Z_MSC_RDPS_AirTemp_IsbL-0850_RLatLon0.09_PT027H.grib2 2026-05-07 08:48 631K
20260507T06Z_MSC_RDPS_AirTemp_IsbL-0875_RLatLon0.09_PT027H.grib2 2026-05-07 08:48 653K
20260507T06Z_MSC_RDPS_AirTemp_IsbL-0900_RLatLon0.09_PT027H.grib2 2026-05-07 08:48 660K
20260507T06Z_MSC_RDPS_AirTemp_IsbL-0925_RLatLon0.09_PT027H.grib2 2026-05-07 08:48 663K
20260507T06Z_MSC_RDPS_AirTemp_IsbL-0950_RLatLon0.09_PT027H.grib2 2026-05-07 08:48 530K
20260507T06Z_MSC_RDPS_AirTemp_IsbL-0970_RLatLon0.09_PT027H.grib2 2026-05-07 08:48 525K
20260507T06Z_MSC_RDPS_AirTemp_IsbL-0985_RLatLon0.09_PT027H.grib2 2026-05-07 08:48 512K
20260507T06Z_MSC_RDPS_AirTemp_IsbL-1000_RLatLon0.09_PT027H.grib2 2026-05-07 08:48 500K
20260507T06Z_MSC_RDPS_AirTemp_IsbL-1015_RLatLon0.09_PT027H.grib2 2026-05-07 08:48 497K
20260507T06Z_MSC_RDPS_Albedo_Sfc_RLatLon0.09_PT027H.grib2 2026-05-07 08:48 159K
20260507T06Z_MSC_RDPS_CAPE_Sfc_RLatLon0.09_PT027H.grib2 2026-05-07 08:48 1.6M
20260507T06Z_MSC_RDPS_CIN_Sfc_RLatLon0.09_PT027H.grib2 2026-05-07 08:48 1.2M
20260507T06Z_MSC_RDPS_CloudWater_EAtm_RLatLon0.09_PT027H.grib2 2026-05-07 08:48 225K
20260507T06Z_MSC_RDPS_ConvectivePrecip-Accum_Sfc_RLatLon0.09_PT027H.grib2 2026-05-07 08:48 878K
20260507T06Z_MSC_RDPS_DewPointDepression_AGL-2m_RLatLon0.09_PT027H.grib2 2026-05-07 08:48 404K
20260507T06Z_MSC_RDPS_DewPointDepression_IsbL-0001_RLatLon0.09_PT027H.grib2 2026-05-07 08:48 193
20260507T06Z_MSC_RDPS_DewPointDepression_IsbL-0005_RLatLon0.09_PT027H.grib2 2026-05-07 08:48 193
20260507T06Z_MSC_RDPS_DewPointDepression_IsbL-0010_RLatLon0.09_PT027H.grib2 2026-05-07 08:48 193
20260507T06Z_MSC_RDPS_DewPointDepression_IsbL-0020_RLatLon0.09_PT027H.grib2 2026-05-07 08:48 193
20260507T06Z_MSC_RDPS_DewPointDepression_IsbL-0030_RLatLon0.09_PT027H.grib2 2026-05-07 08:48 193
20260507T06Z_MSC_RDPS_DewPointDepression_IsbL-0050_RLatLon0.09_PT027H.grib2 2026-05-07 08:48 86K
20260507T06Z_MSC_RDPS_DewPointDepression_IsbL-0100_RLatLon0.09_PT027H.grib2 2026-05-07 08:48 109K
20260507T06Z_MSC_RDPS_DewPointDepression_IsbL-0150_RLatLon0.09_PT027H.grib2 2026-05-07 08:48 132K
20260507T06Z_MSC_RDPS_DewPointDepression_IsbL-0175_RLatLon0.09_PT027H.grib2 2026-05-07 08:48 165K
20260507T06Z_MSC_RDPS_DewPointDepression_IsbL-0200_RLatLon0.09_PT027H.grib2 2026-05-07 08:48 212K
20260507T06Z_MSC_RDPS_DewPointDepression_IsbL-0225_RLatLon0.09_PT027H.grib2 2026-05-07 08:48 248K
20260507T06Z_MSC_RDPS_DewPointDepression_IsbL-0250_RLatLon0.09_PT027H.grib2 2026-05-07 08:48 296K
20260507T06Z_MSC_RDPS_DewPointDepression_IsbL-0275_RLatLon0.09_PT027H.grib2 2026-05-07 08:48 305K
20260507T06Z_MSC_RDPS_DewPointDepression_IsbL-0300_RLatLon0.09_PT027H.grib2 2026-05-07 08:48 321K
20260507T06Z_MSC_RDPS_DewPointDepression_IsbL-0350_RLatLon0.09_PT027H.grib2 2026-05-07 08:48 322K
20260507T06Z_MSC_RDPS_DewPointDepression_IsbL-0400_RLatLon0.09_PT027H.grib2 2026-05-07 08:48 326K
20260507T06Z_MSC_RDPS_DewPointDepression_IsbL-0450_RLatLon0.09_PT027H.grib2 2026-05-07 08:48 332K
20260507T06Z_MSC_RDPS_DewPointDepression_IsbL-0500_RLatLon0.09_PT027H.grib2 2026-05-07 08:48 338K
20260507T06Z_MSC_RDPS_DewPointDepression_IsbL-0550_RLatLon0.09_PT027H.grib2 2026-05-07 08:48 351K
20260507T06Z_MSC_RDPS_DewPointDepression_IsbL-0600_RLatLon0.09_PT027H.grib2 2026-05-07 08:48 366K
20260507T06Z_MSC_RDPS_DewPointDepression_IsbL-0650_RLatLon0.09_PT027H.grib2 2026-05-07 08:48 373K
20260507T06Z_MSC_RDPS_DewPointDepression_IsbL-0700_RLatLon0.09_PT027H.grib2 2026-05-07 08:48 385K
20260507T06Z_MSC_RDPS_DewPointDepression_IsbL-0750_RLatLon0.09_PT027H.grib2 2026-05-07 08:48 409K
20260507T06Z_MSC_RDPS_DewPointDepression_IsbL-0800_RLatLon0.09_PT027H.grib2 2026-05-07 08:48 450K
20260507T06Z_MSC_RDPS_DewPointDepression_IsbL-0850_RLatLon0.09_PT027H.grib2 2026-05-07 08:48 484K
20260507T06Z_MSC_RDPS_DewPointDepression_IsbL-0875_RLatLon0.09_PT027H.grib2 2026-05-07 08:48 482K
20260507T06Z_MSC_RDPS_DewPointDepression_IsbL-0900_RLatLon0.09_PT027H.grib2 2026-05-07 08:48 468K
20260507T06Z_MSC_RDPS_DewPointDepression_IsbL-0925_RLatLon0.09_PT027H.grib2 2026-05-07 08:48 453K
20260507T06Z_MSC_RDPS_DewPointDepression_IsbL-0950_RLatLon0.09_PT027H.grib2 2026-05-07 08:48 445K
20260507T06Z_MSC_RDPS_DewPointDepression_IsbL-0970_RLatLon0.09_PT027H.grib2 2026-05-07 08:48 441K
20260507T06Z_MSC_RDPS_DewPointDepression_IsbL-0985_RLatLon0.09_PT027H.grib2 2026-05-07 08:48 437K
20260507T06Z_MSC_RDPS_DewPointDepression_IsbL-1000_RLatLon0.09_PT027H.grib2 2026-05-07 08:48 434K
20260507T06Z_MSC_RDPS_DewPointDepression_IsbL-1015_RLatLon0.09_PT027H.grib2 2026-05-07 08:48 423K
20260507T06Z_MSC_RDPS_DewPoint_AGL-2m_RLatLon0.09_PT027H.grib2 2026-05-07 08:48 402K
20260507T06Z_MSC_RDPS_DownwardLongwaveRadiationFlux-Accum_Sfc_RLatLon0.09_PT027H.grib2 2026-05-07 08:48 454K
20260507T06Z_MSC_RDPS_DownwardShortwaveRadiationFlux-Accum_NTAtm_RLatLon0.09_PT027H.grib2 2026-05-07 08:48 126K
20260507T06Z_MSC_RDPS_DownwardShortwaveRadiationFlux-Accum_Sfc_RLatLon0.09_PT027H.grib2 2026-05-07 08:48 654K
20260507T06Z_MSC_RDPS_FreezingRain-Accum1h_Sfc_RLatLon0.09_PT027H.grib2 2026-05-07 08:48 40K
20260507T06Z_MSC_RDPS_FreezingRain-Accum3h_Sfc_RLatLon0.09_PT027H.grib2 2026-05-07 08:48 35K
20260507T06Z_MSC_RDPS_FreezingRain-Accum_Sfc_RLatLon0.09_PT027H.grib2 2026-05-07 08:48 140K
20260507T06Z_MSC_RDPS_GeopotentialHeight_IsbL-0001_RLatLon0.09_PT027H.grib2 2026-05-07 08:48 238K
20260507T06Z_MSC_RDPS_GeopotentialHeight_IsbL-0005_RLatLon0.09_PT027H.grib2 2026-05-07 08:48 337K
20260507T06Z_MSC_RDPS_GeopotentialHeight_IsbL-0010_RLatLon0.09_PT027H.grib2 2026-05-07 08:48 339K
20260507T06Z_MSC_RDPS_GeopotentialHeight_IsbL-0020_RLatLon0.09_PT027H.grib2 2026-05-07 08:48 306K
20260507T06Z_MSC_RDPS_GeopotentialHeight_IsbL-0030_RLatLon0.09_PT027H.grib2 2026-05-07 08:48 308K
20260507T06Z_MSC_RDPS_GeopotentialHeight_IsbL-0050_RLatLon0.09_PT027H.grib2 2026-05-07 08:48 309K
20260507T06Z_MSC_RDPS_GeopotentialHeight_IsbL-0100_RLatLon0.09_PT027H.grib2 2026-05-07 08:48 284K
20260507T06Z_MSC_RDPS_GeopotentialHeight_IsbL-0150_RLatLon0.09_PT027H.grib2 2026-05-07 08:48 226K
20260507T06Z_MSC_RDPS_GeopotentialHeight_IsbL-0175_RLatLon0.09_PT027H.grib2 2026-05-07 08:48 229K
20260507T06Z_MSC_RDPS_GeopotentialHeight_IsbL-0200_RLatLon0.09_PT027H.grib2 2026-05-07 08:48 262K
20260507T06Z_MSC_RDPS_GeopotentialHeight_IsbL-0225_RLatLon0.09_PT027H.grib2 2026-05-07 08:48 263K
20260507T06Z_MSC_RDPS_GeopotentialHeight_IsbL-0250_RLatLon0.09_PT027H.grib2 2026-05-07 08:48 265K
20260507T06Z_MSC_RDPS_GeopotentialHeight_IsbL-0275_RLatLon0.09_PT027H.grib2 2026-05-07 08:48 264K
20260507T06Z_MSC_RDPS_GeopotentialHeight_IsbL-0300_RLatLon0.09_PT027H.grib2 2026-05-07 08:48 264K
20260507T06Z_MSC_RDPS_GeopotentialHeight_IsbL-0350_RLatLon0.09_PT027H.grib2 2026-05-07 08:48 230K
20260507T06Z_MSC_RDPS_GeopotentialHeight_IsbL-0400_RLatLon0.09_PT027H.grib2 2026-05-07 08:48 226K
20260507T06Z_MSC_RDPS_GeopotentialHeight_IsbL-0450_RLatLon0.09_PT027H.grib2 2026-05-07 08:48 292K
20260507T06Z_MSC_RDPS_GeopotentialHeight_IsbL-0500_RLatLon0.09_PT027H.grib2 2026-05-07 08:48 287K
20260507T06Z_MSC_RDPS_GeopotentialHeight_IsbL-0550_RLatLon0.09_PT027H.grib2 2026-05-07 08:48 284K
20260507T06Z_MSC_RDPS_GeopotentialHeight_IsbL-0600_RLatLon0.09_PT027H.grib2 2026-05-07 08:48 279K
20260507T06Z_MSC_RDPS_GeopotentialHeight_IsbL-0650_RLatLon0.09_PT027H.grib2 2026-05-07 08:48 250K
20260507T06Z_MSC_RDPS_GeopotentialHeight_IsbL-0700_RLatLon0.09_PT027H.grib2 2026-05-07 08:48 249K
20260507T06Z_MSC_RDPS_GeopotentialHeight_IsbL-0750_RLatLon0.09_PT027H.grib2 2026-05-07 08:48 333K
20260507T06Z_MSC_RDPS_GeopotentialHeight_IsbL-0800_RLatLon0.09_PT027H.grib2 2026-05-07 08:48 342K
20260507T06Z_MSC_RDPS_GeopotentialHeight_IsbL-0850_RLatLon0.09_PT027H.grib2 2026-05-07 08:48 386K
20260507T06Z_MSC_RDPS_GeopotentialHeight_IsbL-0875_RLatLon0.09_PT027H.grib2 2026-05-07 08:48 389K
20260507T06Z_MSC_RDPS_GeopotentialHeight_IsbL-0900_RLatLon0.09_PT027H.grib2 2026-05-07 08:48 391K
20260507T06Z_MSC_RDPS_GeopotentialHeight_IsbL-0925_RLatLon0.09_PT027H.grib2 2026-05-07 08:48 394K
20260507T06Z_MSC_RDPS_GeopotentialHeight_IsbL-0950_RLatLon0.09_PT027H.grib2 2026-05-07 08:48 397K
20260507T06Z_MSC_RDPS_GeopotentialHeight_IsbL-0970_RLatLon0.09_PT027H.grib2 2026-05-07 08:48 402K
20260507T06Z_MSC_RDPS_GeopotentialHeight_IsbL-0985_RLatLon0.09_PT027H.grib2 2026-05-07 08:48 411K
20260507T06Z_MSC_RDPS_GeopotentialHeight_IsbL-1000_RLatLon0.09_PT027H.grib2 2026-05-07 08:48 424K
20260507T06Z_MSC_RDPS_GeopotentialHeight_IsbL-1015_RLatLon0.09_PT027H.grib2 2026-05-07 08:48 442K
20260507T06Z_MSC_RDPS_HighLowPressure_MSL_RLatLon0.09_PT027H.json 2026-05-07 08:39 20K
20260507T06Z_MSC_RDPS_Humidex_Sfc_RLatLon0.09_PT027H.grib2 2026-05-07 08:48 2.4M
20260507T06Z_MSC_RDPS_IcePellets-Accum1h_Sfc_RLatLon0.09_PT027H.grib2 2026-05-07 08:48 5.7K
20260507T06Z_MSC_RDPS_IcePellets-Accum3h_Sfc_RLatLon0.09_PT027H.grib2 2026-05-07 08:48 6.3K
20260507T06Z_MSC_RDPS_IcePellets-Accum_Sfc_RLatLon0.09_PT027H.grib2 2026-05-07 08:48 16K
20260507T06Z_MSC_RDPS_KIndex_Sfc_RLatLon0.09_PT027H.grib2 2026-05-07 08:48 2.5M
20260507T06Z_MSC_RDPS_LatentHeatNetFlux_Sfc_RLatLon0.09_PT027H.grib2 2026-05-07 08:48 314K
20260507T06Z_MSC_RDPS_LiftedIndex-MU-VT_IsbL-0500_RLatLon0.09_PT027H.grib2 2026-05-07 08:48 2.4M
20260507T06Z_MSC_RDPS_NetLongwaveRadiationFlux-Accum_Sfc_RLatLon0.09_PT027H.grib2 2026-05-07 08:48 604K
20260507T06Z_MSC_RDPS_NetShortwaveRadiationFlux-Accum_Sfc_RLatLon0.09_PT027H.grib2 2026-05-07 08:48 649K
20260507T06Z_MSC_RDPS_PlanetaryBoundaryLayerHeight_Sfc_RLatLon0.09_PT027H.grib2 2026-05-07 08:48 1.0M
20260507T06Z_MSC_RDPS_Precip-Accum1h_Sfc_RLatLon0.09_PT027H.grib2 2026-05-07 08:48 1.3M
20260507T06Z_MSC_RDPS_Precip-Accum3h_Sfc_RLatLon0.09_PT027H.grib2 2026-05-07 08:48 1.4M
20260507T06Z_MSC_RDPS_Precip-Accum_Sfc_RLatLon0.09_PT027H.grib2 2026-05-07 08:48 2.0M
20260507T06Z_MSC_RDPS_PrecipRate_Sfc_RLatLon0.09_PT027H.grib2 2026-05-07 08:48 176K
20260507T06Z_MSC_RDPS_PrecipType-Instant_Sfc_RLatLon0.09_PT027H.grib2 2026-05-07 08:48 582K
20260507T06Z_MSC_RDPS_Pressure-Trend3h_Sfc_RLatLon0.09_PT027H.grib2 2026-05-07 08:48 1.2M
20260507T06Z_MSC_RDPS_Pressure_MSL_RLatLon0.09_PT027H.grib2 2026-05-07 08:48 321K
20260507T06Z_MSC_RDPS_Pressure_PVU-1.5_RLatLon0.09_PT027H.grib2 2026-05-07 08:48 2.5M
20260507T06Z_MSC_RDPS_Pressure_PVU-1_RLatLon0.09_PT027H.grib2 2026-05-07 08:48 2.4M
20260507T06Z_MSC_RDPS_Pressure_PVU-2_RLatLon0.09_PT027H.grib2 2026-05-07 08:48 2.4M
20260507T06Z_MSC_RDPS_Pressure_Sfc_RLatLon0.09_PT027H.grib2 2026-05-07 08:48 498K
20260507T06Z_MSC_RDPS_RadiativeTemp_Sfc_RLatLon0.09_PT027H.grib2 2026-05-07 08:48 394K
20260507T06Z_MSC_RDPS_Rain-Accum1h_Sfc_RLatLon0.09_PT027H.grib2 2026-05-07 08:48 553K
20260507T06Z_MSC_RDPS_Rain-Accum3h_Sfc_RLatLon0.09_PT027H.grib2 2026-05-07 08:48 709K
20260507T06Z_MSC_RDPS_Rain-Accum_Sfc_RLatLon0.09_PT027H.grib2 2026-05-07 08:48 1.6M
20260507T06Z_MSC_RDPS_RelativeHumidity_AGL-2m_RLatLon0.09_PT027H.grib2 2026-05-07 08:48 1.0M
20260507T06Z_MSC_RDPS_RelativeHumidity_IsbL-0010_RLatLon0.09_PT027H.grib2 2026-05-07 08:48 604K
20260507T06Z_MSC_RDPS_RelativeHumidity_IsbL-0020_RLatLon0.09_PT027H.grib2 2026-05-07 08:48 656K
20260507T06Z_MSC_RDPS_RelativeHumidity_IsbL-0030_RLatLon0.09_PT027H.grib2 2026-05-07 08:48 640K
20260507T06Z_MSC_RDPS_RelativeHumidity_IsbL-0050_RLatLon0.09_PT027H.grib2 2026-05-07 08:48 362K
20260507T06Z_MSC_RDPS_RelativeHumidity_IsbL-0100_RLatLon0.09_PT027H.grib2 2026-05-07 08:48 277K
20260507T06Z_MSC_RDPS_RelativeHumidity_IsbL-0150_RLatLon0.09_PT027H.grib2 2026-05-07 08:48 401K
20260507T06Z_MSC_RDPS_RelativeHumidity_IsbL-0175_RLatLon0.09_PT027H.grib2 2026-05-07 08:48 453K
20260507T06Z_MSC_RDPS_RelativeHumidity_IsbL-0200_RLatLon0.09_PT027H.grib2 2026-05-07 08:48 530K
20260507T06Z_MSC_RDPS_RelativeHumidity_IsbL-0225_RLatLon0.09_PT027H.grib2 2026-05-07 08:48 600K
20260507T06Z_MSC_RDPS_RelativeHumidity_IsbL-0250_RLatLon0.09_PT027H.grib2 2026-05-07 08:48 667K
20260507T06Z_MSC_RDPS_RelativeHumidity_IsbL-0275_RLatLon0.09_PT027H.grib2 2026-05-07 08:48 693K
20260507T06Z_MSC_RDPS_RelativeHumidity_IsbL-0300_RLatLon0.09_PT027H.grib2 2026-05-07 08:48 737K
20260507T06Z_MSC_RDPS_RelativeHumidity_IsbL-0350_RLatLon0.09_PT027H.grib2 2026-05-07 08:48 752K
20260507T06Z_MSC_RDPS_RelativeHumidity_IsbL-0400_RLatLon0.09_PT027H.grib2 2026-05-07 08:48 768K
20260507T06Z_MSC_RDPS_RelativeHumidity_IsbL-0450_RLatLon0.09_PT027H.grib2 2026-05-07 08:48 778K
20260507T06Z_MSC_RDPS_RelativeHumidity_IsbL-0500_RLatLon0.09_PT027H.grib2 2026-05-07 08:48 788K
20260507T06Z_MSC_RDPS_RelativeHumidity_IsbL-0550_RLatLon0.09_PT027H.grib2 2026-05-07 08:48 808K
20260507T06Z_MSC_RDPS_RelativeHumidity_IsbL-0600_RLatLon0.09_PT027H.grib2 2026-05-07 08:48 843K
20260507T06Z_MSC_RDPS_RelativeHumidity_IsbL-0650_RLatLon0.09_PT027H.grib2 2026-05-07 08:48 856K
20260507T06Z_MSC_RDPS_RelativeHumidity_IsbL-0700_RLatLon0.09_PT027H.grib2 2026-05-07 08:48 881K
20260507T06Z_MSC_RDPS_RelativeHumidity_IsbL-0750_RLatLon0.09_PT027H.grib2 2026-05-07 08:48 926K
20260507T06Z_MSC_RDPS_RelativeHumidity_IsbL-0800_RLatLon0.09_PT027H.grib2 2026-05-07 08:48 1.0M
20260507T06Z_MSC_RDPS_RelativeHumidity_IsbL-0850_RLatLon0.09_PT027H.grib2 2026-05-07 08:48 1.0M
20260507T06Z_MSC_RDPS_RelativeHumidity_IsbL-0875_RLatLon0.09_PT027H.grib2 2026-05-07 08:48 1.1M
20260507T06Z_MSC_RDPS_RelativeHumidity_IsbL-0900_RLatLon0.09_PT027H.grib2 2026-05-07 08:48 1.1M
20260507T06Z_MSC_RDPS_RelativeHumidity_IsbL-0925_RLatLon0.09_PT027H.grib2 2026-05-07 08:48 1.1M
20260507T06Z_MSC_RDPS_RelativeHumidity_IsbL-0950_RLatLon0.09_PT027H.grib2 2026-05-07 08:48 1.1M
20260507T06Z_MSC_RDPS_RelativeHumidity_IsbL-0970_RLatLon0.09_PT027H.grib2 2026-05-07 08:48 1.1M
20260507T06Z_MSC_RDPS_RelativeHumidity_IsbL-0985_RLatLon0.09_PT027H.grib2 2026-05-07 08:48 1.0M
20260507T06Z_MSC_RDPS_RelativeHumidity_IsbL-1000_RLatLon0.09_PT027H.grib2 2026-05-07 08:48 1.0M
20260507T06Z_MSC_RDPS_RelativeHumidity_IsbL-1015_RLatLon0.09_PT027H.grib2 2026-05-07 08:48 1.0M
20260507T06Z_MSC_RDPS_Runoff-Accum_Sfc_RLatLon0.09_PT027H.grib2 2026-05-07 08:48 77K
20260507T06Z_MSC_RDPS_SWEATIndex_Sfc_RLatLon0.09_PT027H.grib2 2026-05-07 08:48 2.4M
20260507T06Z_MSC_RDPS_SeeingIndex_EAtm_RLatLon0.09_PT027H.grib2 2026-05-07 08:48 1.0M
20260507T06Z_MSC_RDPS_SensibleHeatNetFlux_Sfc_RLatLon0.09_PT027H.grib2 2026-05-07 08:48 213K
20260507T06Z_MSC_RDPS_ShowalterIndex_IsbL-0500_RLatLon0.09_PT027H.grib2 2026-05-07 08:48 2.6M
20260507T06Z_MSC_RDPS_SkyTransparencyIndex_EAtm_RLatLon0.09_PT027H.grib2 2026-05-07 08:48 722K
20260507T06Z_MSC_RDPS_Snow-Accum1h_Sfc_RLatLon0.09_PT027H.grib2 2026-05-07 08:48 496K
20260507T06Z_MSC_RDPS_Snow-Accum3h_Sfc_RLatLon0.09_PT027H.grib2 2026-05-07 08:48 458K
20260507T06Z_MSC_RDPS_Snow-Accum_Sfc_RLatLon0.09_PT027H.grib2 2026-05-07 08:48 666K
20260507T06Z_MSC_RDPS_SnowDensity_Sfc_RLatLon0.09_PT027H.grib2 2026-05-07 08:48 171K
20260507T06Z_MSC_RDPS_SnowDepth_Sfc_RLatLon0.09_PT027H.grib2 2026-05-07 08:48 633K
20260507T06Z_MSC_RDPS_SoilTemp_DBS-0to10cm_RLatLon0.09_PT027H.grib2 2026-05-07 08:48 224K
20260507T06Z_MSC_RDPS_SoilTemp_Sfc_RLatLon0.09_PT027H.grib2 2026-05-07 08:48 268K
20260507T06Z_MSC_RDPS_SoilVolumetricIceContent_Sfc_RLatLon0.09_PT027H.grib2 2026-05-07 08:48 147K
20260507T06Z_MSC_RDPS_SoilVolumetricWaterContent_DBS-0to10cm_RLatLon0.09_PT027H.grib2 2026-05-07 08:48 284K
20260507T06Z_MSC_RDPS_SoilVolumetricWaterContent_DBS-0to1cm_RLatLon0.09_PT027H.grib2 2026-05-07 08:48 339K
20260507T06Z_MSC_RDPS_SpecificHumidity_AGL-120m_RLatLon0.09_PT027H.grib2 2026-05-07 08:48 505K
20260507T06Z_MSC_RDPS_SpecificHumidity_AGL-2m_RLatLon0.09_PT027H.grib2 2026-05-07 08:48 673K
20260507T06Z_MSC_RDPS_SpecificHumidity_AGL-40m_RLatLon0.09_PT027H.grib2 2026-05-07 08:48 510K
20260507T06Z_MSC_RDPS_SpecificHumidity_AGL-80m_RLatLon0.09_PT027H.grib2 2026-05-07 08:48 506K
20260507T06Z_MSC_RDPS_SpecificHumidity_IsbL-0001_RLatLon0.09_PT027H.grib2 2026-05-07 08:48 405K
20260507T06Z_MSC_RDPS_SpecificHumidity_IsbL-0005_RLatLon0.09_PT027H.grib2 2026-05-07 08:48 375K
20260507T06Z_MSC_RDPS_SpecificHumidity_IsbL-0010_RLatLon0.09_PT027H.grib2 2026-05-07 08:48 410K
20260507T06Z_MSC_RDPS_SpecificHumidity_IsbL-0020_RLatLon0.09_PT027H.grib2 2026-05-07 08:48 386K
20260507T06Z_MSC_RDPS_SpecificHumidity_IsbL-0030_RLatLon0.09_PT027H.grib2 2026-05-07 08:48 374K
20260507T06Z_MSC_RDPS_SpecificHumidity_IsbL-0050_RLatLon0.09_PT027H.grib2 2026-05-07 08:48 484K
20260507T06Z_MSC_RDPS_SpecificHumidity_IsbL-0100_RLatLon0.09_PT027H.grib2 2026-05-07 08:48 418K
20260507T06Z_MSC_RDPS_SpecificHumidity_IsbL-0150_RLatLon0.09_PT027H.grib2 2026-05-07 08:48 444K
20260507T06Z_MSC_RDPS_SpecificHumidity_IsbL-0175_RLatLon0.09_PT027H.grib2 2026-05-07 08:48 424K
20260507T06Z_MSC_RDPS_SpecificHumidity_IsbL-0200_RLatLon0.09_PT027H.grib2 2026-05-07 08:48 460K
20260507T06Z_MSC_RDPS_SpecificHumidity_IsbL-0225_RLatLon0.09_PT027H.grib2 2026-05-07 08:48 463K
20260507T06Z_MSC_RDPS_SpecificHumidity_IsbL-0250_RLatLon0.09_PT027H.grib2 2026-05-07 08:48 509K
20260507T06Z_MSC_RDPS_SpecificHumidity_IsbL-0275_RLatLon0.09_PT027H.grib2 2026-05-07 08:48 468K
20260507T06Z_MSC_RDPS_SpecificHumidity_IsbL-0300_RLatLon0.09_PT027H.grib2 2026-05-07 08:48 440K
20260507T06Z_MSC_RDPS_SpecificHumidity_IsbL-0350_RLatLon0.09_PT027H.grib2 2026-05-07 08:48 431K
20260507T06Z_MSC_RDPS_SpecificHumidity_IsbL-0400_RLatLon0.09_PT027H.grib2 2026-05-07 08:48 510K
20260507T06Z_MSC_RDPS_SpecificHumidity_IsbL-0450_RLatLon0.09_PT027H.grib2 2026-05-07 08:48 563K
20260507T06Z_MSC_RDPS_SpecificHumidity_IsbL-0500_RLatLon0.09_PT027H.grib2 2026-05-07 08:48 499K
20260507T06Z_MSC_RDPS_SpecificHumidity_IsbL-0550_RLatLon0.09_PT027H.grib2 2026-05-07 08:48 572K
20260507T06Z_MSC_RDPS_SpecificHumidity_IsbL-0600_RLatLon0.09_PT027H.grib2 2026-05-07 08:48 628K
20260507T06Z_MSC_RDPS_SpecificHumidity_IsbL-0650_RLatLon0.09_PT027H.grib2 2026-05-07 08:48 550K
20260507T06Z_MSC_RDPS_SpecificHumidity_IsbL-0700_RLatLon0.09_PT027H.grib2 2026-05-07 08:48 596K
20260507T06Z_MSC_RDPS_SpecificHumidity_IsbL-0750_RLatLon0.09_PT027H.grib2 2026-05-07 08:48 653K
20260507T06Z_MSC_RDPS_SpecificHumidity_IsbL-0800_RLatLon0.09_PT027H.grib2 2026-05-07 08:48 743K
20260507T06Z_MSC_RDPS_SpecificHumidity_IsbL-0850_RLatLon0.09_PT027H.grib2 2026-05-07 08:48 824K
20260507T06Z_MSC_RDPS_SpecificHumidity_IsbL-0875_RLatLon0.09_PT027H.grib2 2026-05-07 08:48 847K
20260507T06Z_MSC_RDPS_SpecificHumidity_IsbL-0900_RLatLon0.09_PT027H.grib2 2026-05-07 08:48 857K
20260507T06Z_MSC_RDPS_SpecificHumidity_IsbL-0925_RLatLon0.09_PT027H.grib2 2026-05-07 08:48 857K
20260507T06Z_MSC_RDPS_SpecificHumidity_IsbL-0950_RLatLon0.09_PT027H.grib2 2026-05-07 08:48 856K
20260507T06Z_MSC_RDPS_SpecificHumidity_IsbL-0970_RLatLon0.09_PT027H.grib2 2026-05-07 08:48 708K
20260507T06Z_MSC_RDPS_SpecificHumidity_IsbL-0985_RLatLon0.09_PT027H.grib2 2026-05-07 08:48 699K
20260507T06Z_MSC_RDPS_SpecificHumidity_IsbL-1000_RLatLon0.09_PT027H.grib2 2026-05-07 08:48 694K
20260507T06Z_MSC_RDPS_SpecificHumidity_IsbL-1015_RLatLon0.09_PT027H.grib2 2026-05-07 08:48 683K
20260507T06Z_MSC_RDPS_SpecificHumidity_Sfc_RLatLon0.09_PT027H.grib2 2026-05-07 08:48 304K
20260507T06Z_MSC_RDPS_StormRelativeHelicity_EtaL-10000_RLatLon0.09_PT027H.grib2 2026-05-07 08:48 1.1M
20260507T06Z_MSC_RDPS_StormSeverityIndex_EtaL-10000_RLatLon0.09_PT027H.grib2 2026-05-07 08:48 1.1M
20260507T06Z_MSC_RDPS_Thickness_IsbL-0850to0700_RLatLon0.09_PT027H.grib2 2026-05-07 08:48 244K
20260507T06Z_MSC_RDPS_Thickness_IsbL-1000to0500_RLatLon0.09_PT027H.grib2 2026-05-07 08:48 192K
20260507T06Z_MSC_RDPS_Thickness_IsbL-1000to0850_RLatLon0.09_PT027H.grib2 2026-05-07 08:48 258K
20260507T06Z_MSC_RDPS_TotalCloudCover_Sfc_RLatLon0.09_PT027H.grib2 2026-05-07 08:48 676K
20260507T06Z_MSC_RDPS_TotalTotalsIndex_Sfc_RLatLon0.09_PT027H.grib2 2026-05-07 08:48 2.4M
20260507T06Z_MSC_RDPS_UVIndex-ClearSky_Sfc_RLatLon0.09_PT027H.grib2 2026-05-07 08:48 85K
20260507T06Z_MSC_RDPS_UVIndex_Sfc_RLatLon0.09_PT027H.grib2 2026-05-07 08:48 176K
20260507T06Z_MSC_RDPS_UpwardLongwaveRadiationFlux_NTAtm_RLatLon0.09_PT027H.grib2 2026-05-07 08:48 484K
20260507T06Z_MSC_RDPS_UpwardShortwaveRadiationFlux_NTAtm_RLatLon0.09_PT027H.grib2 2026-05-07 08:48 179K
20260507T06Z_MSC_RDPS_VerticalVelocity_IsbL-0250_RLatLon0.09_PT027H.grib2 2026-05-07 08:48 572K
20260507T06Z_MSC_RDPS_VerticalVelocity_IsbL-0500_RLatLon0.09_PT027H.grib2 2026-05-07 08:48 527K
20260507T06Z_MSC_RDPS_VerticalVelocity_IsbL-0700_RLatLon0.09_PT027H.grib2 2026-05-07 08:48 583K
20260507T06Z_MSC_RDPS_VerticalVelocity_IsbL-0850_RLatLon0.09_PT027H.grib2 2026-05-07 08:48 691K
20260507T06Z_MSC_RDPS_VerticalWindShear_EtaL-6500_RLatLon0.09_PT027H.grib2 2026-05-07 08:48 1.1M
20260507T06Z_MSC_RDPS_WindChill_Sfc_RLatLon0.09_PT027H.grib2 2026-05-07 08:48 1.2M
20260507T06Z_MSC_RDPS_WindDir_AGL-10m_RLatLon0.09_PT027H.grib2 2026-05-07 08:48 1.0M
20260507T06Z_MSC_RDPS_WindDir_AGL-120m_RLatLon0.09_PT027H.grib2 2026-05-07 08:48 627K
20260507T06Z_MSC_RDPS_WindDir_AGL-40m_RLatLon0.09_PT027H.grib2 2026-05-07 08:48 662K
20260507T06Z_MSC_RDPS_WindDir_AGL-80m_RLatLon0.09_PT027H.grib2 2026-05-07 08:48 640K
20260507T06Z_MSC_RDPS_WindDir_IsbL-0001_RLatLon0.09_PT027H.grib2 2026-05-07 08:48 319K
20260507T06Z_MSC_RDPS_WindDir_IsbL-0005_RLatLon0.09_PT027H.grib2 2026-05-07 08:48 399K
20260507T06Z_MSC_RDPS_WindDir_IsbL-0010_RLatLon0.09_PT027H.grib2 2026-05-07 08:48 380K
20260507T06Z_MSC_RDPS_WindDir_IsbL-0020_RLatLon0.09_PT027H.grib2 2026-05-07 08:48 414K
20260507T06Z_MSC_RDPS_WindDir_IsbL-0030_RLatLon0.09_PT027H.grib2 2026-05-07 08:48 404K
20260507T06Z_MSC_RDPS_WindDir_IsbL-0050_RLatLon0.09_PT027H.grib2 2026-05-07 08:48 454K
20260507T06Z_MSC_RDPS_WindDir_IsbL-0100_RLatLon0.09_PT027H.grib2 2026-05-07 08:48 425K
20260507T06Z_MSC_RDPS_WindDir_IsbL-0150_RLatLon0.09_PT027H.grib2 2026-05-07 08:48 414K
20260507T06Z_MSC_RDPS_WindDir_IsbL-0175_RLatLon0.09_PT027H.grib2 2026-05-07 08:48 437K
20260507T06Z_MSC_RDPS_WindDir_IsbL-0200_RLatLon0.09_PT027H.grib2 2026-05-07 08:48 453K
20260507T06Z_MSC_RDPS_WindDir_IsbL-0225_RLatLon0.09_PT027H.grib2 2026-05-07 08:48 457K
20260507T06Z_MSC_RDPS_WindDir_IsbL-0250_RLatLon0.09_PT027H.grib2 2026-05-07 08:48 453K
20260507T06Z_MSC_RDPS_WindDir_IsbL-0275_RLatLon0.09_PT027H.grib2 2026-05-07 08:48 469K
20260507T06Z_MSC_RDPS_WindDir_IsbL-0300_RLatLon0.09_PT027H.grib2 2026-05-07 08:48 468K
20260507T06Z_MSC_RDPS_WindDir_IsbL-0350_RLatLon0.09_PT027H.grib2 2026-05-07 08:48 494K
20260507T06Z_MSC_RDPS_WindDir_IsbL-0400_RLatLon0.09_PT027H.grib2 2026-05-07 08:48 512K
20260507T06Z_MSC_RDPS_WindDir_IsbL-0450_RLatLon0.09_PT027H.grib2 2026-05-07 08:48 538K
20260507T06Z_MSC_RDPS_WindDir_IsbL-0500_RLatLon0.09_PT027H.grib2 2026-05-07 08:48 560K
20260507T06Z_MSC_RDPS_WindDir_IsbL-0550_RLatLon0.09_PT027H.grib2 2026-05-07 08:48 575K
20260507T06Z_MSC_RDPS_WindDir_IsbL-0600_RLatLon0.09_PT027H.grib2 2026-05-07 08:48 595K
20260507T06Z_MSC_RDPS_WindDir_IsbL-0650_RLatLon0.09_PT027H.grib2 2026-05-07 08:48 631K
20260507T06Z_MSC_RDPS_WindDir_IsbL-0700_RLatLon0.09_PT027H.grib2 2026-05-07 08:48 671K
20260507T06Z_MSC_RDPS_WindDir_IsbL-0750_RLatLon0.09_PT027H.grib2 2026-05-07 08:48 727K
20260507T06Z_MSC_RDPS_WindDir_IsbL-0800_RLatLon0.09_PT027H.grib2 2026-05-07 08:48 797K
20260507T06Z_MSC_RDPS_WindDir_IsbL-0850_RLatLon0.09_PT027H.grib2 2026-05-07 08:48 872K
20260507T06Z_MSC_RDPS_WindDir_IsbL-0875_RLatLon0.09_PT027H.grib2 2026-05-07 08:48 896K
20260507T06Z_MSC_RDPS_WindDir_IsbL-0900_RLatLon0.09_PT027H.grib2 2026-05-07 08:48 917K
20260507T06Z_MSC_RDPS_WindDir_IsbL-0925_RLatLon0.09_PT027H.grib2 2026-05-07 08:48 929K
20260507T06Z_MSC_RDPS_WindDir_IsbL-0950_RLatLon0.09_PT027H.grib2 2026-05-07 08:48 935K
20260507T06Z_MSC_RDPS_WindDir_IsbL-0970_RLatLon0.09_PT027H.grib2 2026-05-07 08:48 944K
20260507T06Z_MSC_RDPS_WindDir_IsbL-0985_RLatLon0.09_PT027H.grib2 2026-05-07 08:48 953K
20260507T06Z_MSC_RDPS_WindDir_IsbL-1000_RLatLon0.09_PT027H.grib2 2026-05-07 08:48 972K
20260507T06Z_MSC_RDPS_WindDir_IsbL-1015_RLatLon0.09_PT027H.grib2 2026-05-07 08:48 1.0M
20260507T06Z_MSC_RDPS_WindGust-Max_AGL-10m_RLatLon0.09_PT027H.grib2 2026-05-07 08:48 1.0M
20260507T06Z_MSC_RDPS_WindGust-Min_AGL-10m_RLatLon0.09_PT027H.grib2 2026-05-07 08:48 963K
20260507T06Z_MSC_RDPS_WindGust_AGL-10m_RLatLon0.09_PT027H.grib2 2026-05-07 08:48 1.0M
20260507T06Z_MSC_RDPS_WindSpeed_AGL-10m_RLatLon0.09_PT027H.grib2 2026-05-07 08:48 844K
20260507T06Z_MSC_RDPS_WindSpeed_AGL-120m_RLatLon0.09_PT027H.grib2 2026-05-07 08:48 542K
20260507T06Z_MSC_RDPS_WindSpeed_AGL-40m_RLatLon0.09_PT027H.grib2 2026-05-07 08:48 674K
20260507T06Z_MSC_RDPS_WindSpeed_AGL-80m_RLatLon0.09_PT027H.grib2 2026-05-07 08:48 673K
20260507T06Z_MSC_RDPS_WindSpeed_IsbL-0001_RLatLon0.09_PT027H.grib2 2026-05-07 08:48 252K
20260507T06Z_MSC_RDPS_WindSpeed_IsbL-0005_RLatLon0.09_PT027H.grib2 2026-05-07 08:48 299K
20260507T06Z_MSC_RDPS_WindSpeed_IsbL-0010_RLatLon0.09_PT027H.grib2 2026-05-07 08:48 399K
20260507T06Z_MSC_RDPS_WindSpeed_IsbL-0020_RLatLon0.09_PT027H.grib2 2026-05-07 08:48 325K
20260507T06Z_MSC_RDPS_WindSpeed_IsbL-0030_RLatLon0.09_PT027H.grib2 2026-05-07 08:48 320K
20260507T06Z_MSC_RDPS_WindSpeed_IsbL-0050_RLatLon0.09_PT027H.grib2 2026-05-07 08:48 352K
20260507T06Z_MSC_RDPS_WindSpeed_IsbL-0100_RLatLon0.09_PT027H.grib2 2026-05-07 08:48 471K
20260507T06Z_MSC_RDPS_WindSpeed_IsbL-0150_RLatLon0.09_PT027H.grib2 2026-05-07 08:48 371K
20260507T06Z_MSC_RDPS_WindSpeed_IsbL-0175_RLatLon0.09_PT027H.grib2 2026-05-07 08:48 417K
20260507T06Z_MSC_RDPS_WindSpeed_IsbL-0200_RLatLon0.09_PT027H.grib2 2026-05-07 08:48 433K
20260507T06Z_MSC_RDPS_WindSpeed_IsbL-0225_RLatLon0.09_PT027H.grib2 2026-05-07 08:48 439K
20260507T06Z_MSC_RDPS_WindSpeed_IsbL-0250_RLatLon0.09_PT027H.grib2 2026-05-07 08:48 439K
20260507T06Z_MSC_RDPS_WindSpeed_IsbL-0275_RLatLon0.09_PT027H.grib2 2026-05-07 08:48 454K
20260507T06Z_MSC_RDPS_WindSpeed_IsbL-0300_RLatLon0.09_PT027H.grib2 2026-05-07 08:48 451K
20260507T06Z_MSC_RDPS_WindSpeed_IsbL-0350_RLatLon0.09_PT027H.grib2 2026-05-07 08:48 463K
20260507T06Z_MSC_RDPS_WindSpeed_IsbL-0400_RLatLon0.09_PT027H.grib2 2026-05-07 08:48 450K
20260507T06Z_MSC_RDPS_WindSpeed_IsbL-0450_RLatLon0.09_PT027H.grib2 2026-05-07 08:48 570K
20260507T06Z_MSC_RDPS_WindSpeed_IsbL-0500_RLatLon0.09_PT027H.grib2 2026-05-07 08:48 572K
20260507T06Z_MSC_RDPS_WindSpeed_IsbL-0550_RLatLon0.09_PT027H.grib2 2026-05-07 08:48 616K
20260507T06Z_MSC_RDPS_WindSpeed_IsbL-0600_RLatLon0.09_PT027H.grib2 2026-05-07 08:48 625K
20260507T06Z_MSC_RDPS_WindSpeed_IsbL-0650_RLatLon0.09_PT027H.grib2 2026-05-07 08:48 647K
20260507T06Z_MSC_RDPS_WindSpeed_IsbL-0700_RLatLon0.09_PT027H.grib2 2026-05-07 08:48 673K
20260507T06Z_MSC_RDPS_WindSpeed_IsbL-0750_RLatLon0.09_PT027H.grib2 2026-05-07 08:48 707K
20260507T06Z_MSC_RDPS_WindSpeed_IsbL-0800_RLatLon0.09_PT027H.grib2 2026-05-07 08:48 757K
20260507T06Z_MSC_RDPS_WindSpeed_IsbL-0850_RLatLon0.09_PT027H.grib2 2026-05-07 08:48 821K
20260507T06Z_MSC_RDPS_WindSpeed_IsbL-0875_RLatLon0.09_PT027H.grib2 2026-05-07 08:48 840K
20260507T06Z_MSC_RDPS_WindSpeed_IsbL-0900_RLatLon0.09_PT027H.grib2 2026-05-07 08:48 855K
20260507T06Z_MSC_RDPS_WindSpeed_IsbL-0925_RLatLon0.09_PT027H.grib2 2026-05-07 08:48 868K
20260507T06Z_MSC_RDPS_WindSpeed_IsbL-0950_RLatLon0.09_PT027H.grib2 2026-05-07 08:48 870K
20260507T06Z_MSC_RDPS_WindSpeed_IsbL-0970_RLatLon0.09_PT027H.grib2 2026-05-07 08:48 864K
20260507T06Z_MSC_RDPS_WindSpeed_IsbL-0985_RLatLon0.09_PT027H.grib2 2026-05-07 08:48 855K
20260507T06Z_MSC_RDPS_WindSpeed_IsbL-1000_RLatLon0.09_PT027H.grib2 2026-05-07 08:48 851K
20260507T06Z_MSC_RDPS_WindSpeed_IsbL-1015_RLatLon0.09_PT027H.grib2 2026-05-07 08:48 843K
20260507T06Z_MSC_RDPS_WindU_AGL-10m_RLatLon0.09_PT027H.grib2 2026-05-07 08:48 435K
20260507T06Z_MSC_RDPS_WindU_AGL-120m_RLatLon0.09_PT027H.grib2 2026-05-07 08:48 539K
20260507T06Z_MSC_RDPS_WindU_AGL-40m_RLatLon0.09_PT027H.grib2 2026-05-07 08:48 543K
20260507T06Z_MSC_RDPS_WindU_AGL-80m_RLatLon0.09_PT027H.grib2 2026-05-07 08:48 541K
20260507T06Z_MSC_RDPS_WindU_IsbL-0001_RLatLon0.09_PT027H.grib2 2026-05-07 08:48 293K
20260507T06Z_MSC_RDPS_WindU_IsbL-0005_RLatLon0.09_PT027H.grib2 2026-05-07 08:48 332K
20260507T06Z_MSC_RDPS_WindU_IsbL-0010_RLatLon0.09_PT027H.grib2 2026-05-07 08:48 300K
20260507T06Z_MSC_RDPS_WindU_IsbL-0020_RLatLon0.09_PT027H.grib2 2026-05-07 08:48 318K
20260507T06Z_MSC_RDPS_WindU_IsbL-0030_RLatLon0.09_PT027H.grib2 2026-05-07 08:48 315K
20260507T06Z_MSC_RDPS_WindU_IsbL-0050_RLatLon0.09_PT027H.grib2 2026-05-07 08:48 380K
20260507T06Z_MSC_RDPS_WindU_IsbL-0100_RLatLon0.09_PT027H.grib2 2026-05-07 08:48 426K
20260507T06Z_MSC_RDPS_WindU_IsbL-0150_RLatLon0.09_PT027H.grib2 2026-05-07 08:48 389K
20260507T06Z_MSC_RDPS_WindU_IsbL-0175_RLatLon0.09_PT027H.grib2 2026-05-07 08:48 411K
20260507T06Z_MSC_RDPS_WindU_IsbL-0200_RLatLon0.09_PT027H.grib2 2026-05-07 08:48 330K
20260507T06Z_MSC_RDPS_WindU_IsbL-0225_RLatLon0.09_PT027H.grib2 2026-05-07 08:48 333K
20260507T06Z_MSC_RDPS_WindU_IsbL-0250_RLatLon0.09_PT027H.grib2 2026-05-07 08:48 332K
20260507T06Z_MSC_RDPS_WindU_IsbL-0275_RLatLon0.09_PT027H.grib2 2026-05-07 08:48 345K
20260507T06Z_MSC_RDPS_WindU_IsbL-0300_RLatLon0.09_PT027H.grib2 2026-05-07 08:48 340K
20260507T06Z_MSC_RDPS_WindU_IsbL-0350_RLatLon0.09_PT027H.grib2 2026-05-07 08:48 448K
20260507T06Z_MSC_RDPS_WindU_IsbL-0400_RLatLon0.09_PT027H.grib2 2026-05-07 08:48 453K
20260507T06Z_MSC_RDPS_WindU_IsbL-0450_RLatLon0.09_PT027H.grib2 2026-05-07 08:48 458K
20260507T06Z_MSC_RDPS_WindU_IsbL-0500_RLatLon0.09_PT027H.grib2 2026-05-07 08:48 462K
20260507T06Z_MSC_RDPS_WindU_IsbL-0550_RLatLon0.09_PT027H.grib2 2026-05-07 08:48 465K
20260507T06Z_MSC_RDPS_WindU_IsbL-0600_RLatLon0.09_PT027H.grib2 2026-05-07 08:48 455K
20260507T06Z_MSC_RDPS_WindU_IsbL-0650_RLatLon0.09_PT027H.grib2 2026-05-07 08:48 474K
20260507T06Z_MSC_RDPS_WindU_IsbL-0700_RLatLon0.09_PT027H.grib2 2026-05-07 08:48 498K
20260507T06Z_MSC_RDPS_WindU_IsbL-0750_RLatLon0.09_PT027H.grib2 2026-05-07 08:48 654K
20260507T06Z_MSC_RDPS_WindU_IsbL-0800_RLatLon0.09_PT027H.grib2 2026-05-07 08:48 702K
20260507T06Z_MSC_RDPS_WindU_IsbL-0850_RLatLon0.09_PT027H.grib2 2026-05-07 08:48 764K
20260507T06Z_MSC_RDPS_WindU_IsbL-0875_RLatLon0.09_PT027H.grib2 2026-05-07 08:48 781K
20260507T06Z_MSC_RDPS_WindU_IsbL-0900_RLatLon0.09_PT027H.grib2 2026-05-07 08:48 656K
20260507T06Z_MSC_RDPS_WindU_IsbL-0925_RLatLon0.09_PT027H.grib2 2026-05-07 08:48 665K
20260507T06Z_MSC_RDPS_WindU_IsbL-0950_RLatLon0.09_PT027H.grib2 2026-05-07 08:48 664K
20260507T06Z_MSC_RDPS_WindU_IsbL-0970_RLatLon0.09_PT027H.grib2 2026-05-07 08:48 660K
20260507T06Z_MSC_RDPS_WindU_IsbL-0985_RLatLon0.09_PT027H.grib2 2026-05-07 08:48 655K
20260507T06Z_MSC_RDPS_WindU_IsbL-1000_RLatLon0.09_PT027H.grib2 2026-05-07 08:48 791K
20260507T06Z_MSC_RDPS_WindU_IsbL-1015_RLatLon0.09_PT027H.grib2 2026-05-07 08:48 832K
20260507T06Z_MSC_RDPS_WindV_AGL-10m_RLatLon0.09_PT027H.grib2 2026-05-07 08:48 430K
20260507T06Z_MSC_RDPS_WindV_AGL-120m_RLatLon0.09_PT027H.grib2 2026-05-07 08:48 536K
20260507T06Z_MSC_RDPS_WindV_AGL-40m_RLatLon0.09_PT027H.grib2 2026-05-07 08:48 539K
20260507T06Z_MSC_RDPS_WindV_AGL-80m_RLatLon0.09_PT027H.grib2 2026-05-07 08:48 538K
20260507T06Z_MSC_RDPS_WindV_IsbL-0001_RLatLon0.09_PT027H.grib2 2026-05-07 08:48 245K
20260507T06Z_MSC_RDPS_WindV_IsbL-0005_RLatLon0.09_PT027H.grib2 2026-05-07 08:48 288K
20260507T06Z_MSC_RDPS_WindV_IsbL-0010_RLatLon0.09_PT027H.grib2 2026-05-07 08:48 300K
20260507T06Z_MSC_RDPS_WindV_IsbL-0020_RLatLon0.09_PT027H.grib2 2026-05-07 08:48 318K
20260507T06Z_MSC_RDPS_WindV_IsbL-0030_RLatLon0.09_PT027H.grib2 2026-05-07 08:48 315K
20260507T06Z_MSC_RDPS_WindV_IsbL-0050_RLatLon0.09_PT027H.grib2 2026-05-07 08:48 345K
20260507T06Z_MSC_RDPS_WindV_IsbL-0100_RLatLon0.09_PT027H.grib2 2026-05-07 08:48 425K
20260507T06Z_MSC_RDPS_WindV_IsbL-0150_RLatLon0.09_PT027H.grib2 2026-05-07 08:48 387K
20260507T06Z_MSC_RDPS_WindV_IsbL-0175_RLatLon0.09_PT027H.grib2 2026-05-07 08:48 411K
20260507T06Z_MSC_RDPS_WindV_IsbL-0200_RLatLon0.09_PT027H.grib2 2026-05-07 08:48 331K
20260507T06Z_MSC_RDPS_WindV_IsbL-0225_RLatLon0.09_PT027H.grib2 2026-05-07 08:48 359K
20260507T06Z_MSC_RDPS_WindV_IsbL-0250_RLatLon0.09_PT027H.grib2 2026-05-07 08:48 359K
20260507T06Z_MSC_RDPS_WindV_IsbL-0275_RLatLon0.09_PT027H.grib2 2026-05-07 08:48 369K
20260507T06Z_MSC_RDPS_WindV_IsbL-0300_RLatLon0.09_PT027H.grib2 2026-05-07 08:48 366K
20260507T06Z_MSC_RDPS_WindV_IsbL-0350_RLatLon0.09_PT027H.grib2 2026-05-07 08:48 348K
20260507T06Z_MSC_RDPS_WindV_IsbL-0400_RLatLon0.09_PT027H.grib2 2026-05-07 08:48 352K
20260507T06Z_MSC_RDPS_WindV_IsbL-0450_RLatLon0.09_PT027H.grib2 2026-05-07 08:48 455K
20260507T06Z_MSC_RDPS_WindV_IsbL-0500_RLatLon0.09_PT027H.grib2 2026-05-07 08:48 458K
20260507T06Z_MSC_RDPS_WindV_IsbL-0550_RLatLon0.09_PT027H.grib2 2026-05-07 08:48 461K
20260507T06Z_MSC_RDPS_WindV_IsbL-0600_RLatLon0.09_PT027H.grib2 2026-05-07 08:48 469K
20260507T06Z_MSC_RDPS_WindV_IsbL-0650_RLatLon0.09_PT027H.grib2 2026-05-07 08:48 486K
20260507T06Z_MSC_RDPS_WindV_IsbL-0700_RLatLon0.09_PT027H.grib2 2026-05-07 08:48 494K
20260507T06Z_MSC_RDPS_WindV_IsbL-0750_RLatLon0.09_PT027H.grib2 2026-05-07 08:48 523K
20260507T06Z_MSC_RDPS_WindV_IsbL-0800_RLatLon0.09_PT027H.grib2 2026-05-07 08:48 567K
20260507T06Z_MSC_RDPS_WindV_IsbL-0850_RLatLon0.09_PT027H.grib2 2026-05-07 08:48 623K
20260507T06Z_MSC_RDPS_WindV_IsbL-0875_RLatLon0.09_PT027H.grib2 2026-05-07 08:48 641K
20260507T06Z_MSC_RDPS_WindV_IsbL-0900_RLatLon0.09_PT027H.grib2 2026-05-07 08:48 654K
20260507T06Z_MSC_RDPS_WindV_IsbL-0925_RLatLon0.09_PT027H.grib2 2026-05-07 08:48 662K
20260507T06Z_MSC_RDPS_WindV_IsbL-0950_RLatLon0.09_PT027H.grib2 2026-05-07 08:48 660K
20260507T06Z_MSC_RDPS_WindV_IsbL-0970_RLatLon0.09_PT027H.grib2 2026-05-07 08:48 797K
20260507T06Z_MSC_RDPS_WindV_IsbL-0985_RLatLon0.09_PT027H.grib2 2026-05-07 08:48 790K
20260507T06Z_MSC_RDPS_WindV_IsbL-1000_RLatLon0.09_PT027H.grib2 2026-05-07 08:48 785K
20260507T06Z_MSC_RDPS_WindV_IsbL-1015_RLatLon0.09_PT027H.grib2 2026-05-07 08:48 825K